College Park, MD

12:11 PM EST on December 12, 2019 (GMT -0500)
College Park

Weather History for KCGS - October, 2019

Change the Weather History Date:

Sunday, October 13, 2019

  Actual Average Record
Temperature  
Mean Temperature 56 °F -  
Max Temperature 64 °F 68 °F 92 °F (1954)
Min Temperature 49 °F 49 °F 30 °F (1957)
Degree Days  
Heating Degree Days 8    
Growing Degree Days 6 (Base 50)    
Moisture  
Dew Point 40 °F    
Average Humidity 55    
Maximum Humidity 72    
Minimum Humidity 30    
Precipitation  
Precipitation 0.00 in - - ()
Sea Level Pressure  
Sea Level Pressure 30.07 in    
Wind  
Wind Speed 2 mph (NE)    
Max Wind Speed 7 mph    
Max Gust Speed -    
Visibility 10 miles    
Events      
Averages and records for this station are not official NWS values.
T = Trace of Precipitation, MM = Missing Value Source: NWS Daily Summary

Daily Weather History Graph

Daily Weather History Graph

Search for Another Location

Airport or City:

Astronomy

Oct. 13, 2019 Rise Set
Actual Time 7:14 AM EDT 6:32 PM EDT
Civil Twilight 6:48 AM EDT 6:59 PM EDT
Nautical Twilight 6:17 AM EDT 7:30 PM EDT
Astronomical Twilight 5:46 AM EDT 8:00 PM EDT
Moon 6:53 PM EDT (10/13) 6:47 AM EDT (10/13)
Length of Visible Light 12h 11m
Length of Day
11h 17m
Full, 100% of the Moon is Illuminated
Oct 13
Full
Oct 13
Full
Oct 21
Last Quarter
Oct 27
New
Nov 4
First Quarter

Hourly Weather History & Observations

Time (EDT) Temp. Dew Point Humidity Pressure Visibility Wind Dir Wind Speed Gust Speed Precip Events Conditions
12:03 AM 57.4 °F 38.7 °F 50% 30.05 in 10.0 mi Calm Calm - N/A   Clear
12:23 AM 57.6 °F 37.6 °F 47% 30.06 in 10.0 mi NW 5.8 mph - N/A   Clear
12:43 AM 56.7 °F 36.9 °F 48% 30.06 in 10.0 mi NW 5.8 mph - N/A   Clear
1:03 AM 55.8 °F 36.9 °F 49% 30.07 in 10.0 mi NW 4.6 mph - N/A   Clear
1:23 AM 54.5 °F 37.4 °F 52% 30.07 in 10.0 mi Calm Calm - N/A   Clear
1:43 AM 53.4 °F 37.9 °F 56% 30.07 in 10.0 mi NW 3.5 mph - N/A   Clear
2:03 AM 53.4 °F 37.9 °F 56% 30.08 in 10.0 mi NNW 3.5 mph - N/A   Scattered Clouds
2:23 AM 52.5 °F 39.0 °F 60% 30.08 in 10.0 mi Calm Calm - N/A   Mostly Cloudy
2:43 AM 51.1 °F 39.6 °F 65% 30.08 in 10.0 mi Calm Calm - N/A   Mostly Cloudy
3:03 AM 52.5 °F 39.7 °F 62% 30.08 in 10.0 mi Calm Calm - N/A   Mostly Cloudy
3:23 AM 51.3 °F 40.8 °F 67% 30.08 in 10.0 mi Calm Calm - N/A   Mostly Cloudy
3:43 AM 50.4 °F 40.3 °F 68% 30.08 in 10.0 mi Calm Calm - N/A   Scattered Clouds
4:03 AM 49.8 °F 41.0 °F 72% 30.09 in 10.0 mi Calm Calm - N/A   Mostly Cloudy
4:23 AM 50.2 °F 40.1 °F 68% 30.09 in 10.0 mi Calm Calm - N/A   Mostly Cloudy
4:43 AM 50.5 °F 40.6 °F 69% 30.09 in 10.0 mi Calm Calm - N/A   Mostly Cloudy
5:03 AM 50.9 °F 41.0 °F 69% 30.09 in 10.0 mi Calm Calm - N/A   Overcast
5:23 AM 52.3 °F 37.9 °F 58% 30.10 in 10.0 mi Calm Calm - N/A   Overcast
5:43 AM 52.3 °F 37.9 °F 58% 30.11 in 10.0 mi Calm Calm - N/A   Overcast
6:03 AM 52.5 °F 37.4 °F 56% 30.10 in 10.0 mi NNE 3.5 mph - N/A   Overcast
6:23 AM 52.2 °F 38.3 °F 59% 30.11 in 10.0 mi Calm Calm - N/A   Overcast
6:43 AM 52.0 °F 38.5 °F 60% 30.11 in 10.0 mi Calm Calm - N/A   Overcast
7:03 AM 52.5 °F 37.8 °F 57% 30.14 in 10.0 mi WNW 3.5 mph - N/A   Overcast
7:23 AM 52.5 °F 37.6 °F 57% 30.13 in 10.0 mi Calm Calm - N/A   Overcast
7:43 AM 52.2 °F 37.9 °F 58% 30.13 in 10.0 mi Calm Calm - N/A   Overcast
8:03 AM 52.7 °F 37.4 °F 56% 30.12 in 10.0 mi ENE 3.5 mph - N/A   Overcast
8:23 AM 52.9 °F 37.4 °F 56% 30.12 in 10.0 mi North 4.6 mph - N/A   Scattered Clouds
8:43 AM 53.6 °F 35.1 °F 50% 30.12 in 10.0 mi NE 4.6 mph - N/A   Mostly Cloudy
9:03 AM 54.3 °F 33.8 °F 46% 30.13 in 10.0 mi NNE 5.8 mph - N/A   Mostly Cloudy
9:23 AM 55.4 °F 33.4 °F 43% 30.12 in 10.0 mi North 4.6 mph - N/A   Mostly Cloudy
9:43 AM 54.7 °F 32.0 °F 42% 30.12 in 10.0 mi NE 4.6 mph - N/A   Overcast
10:03 AM 55.8 °F 32.0 °F 41% 30.13 in 10.0 mi Calm Calm - N/A   Overcast
10:23 AM 56.3 °F 31.8 °F 39% 30.13 in 10.0 mi Calm Calm - N/A   Overcast
10:43 AM 57.7 °F 32.2 °F 38% 30.11 in 10.0 mi NE 3.5 mph - N/A   Mostly Cloudy
11:03 AM 59.2 °F 32.2 °F 36% 30.11 in 10.0 mi East 6.9 mph - N/A   Scattered Clouds
11:23 AM 60.4 °F 32.4 °F 35% 30.11 in 10.0 mi NE 4.6 mph - N/A   Scattered Clouds
11:43 AM 61.9 °F 32.2 °F 33% 30.10 in 10.0 mi Calm Calm - N/A   Clear
12:03 PM 62.4 °F 32.4 °F 32% 30.09 in 10.0 mi ESE 3.5 mph - N/A   Scattered Clouds
12:23 PM 64.2 °F 32.0 °F 30% 30.09 in 10.0 mi SSE 6.9 mph - N/A   Mostly Cloudy
12:43 PM 64.4 °F 32.2 °F 30% 30.08 in 10.0 mi SE 3.5 mph - N/A   Overcast
1:03 PM 63.7 °F 32.4 °F 31% 30.08 in 10.0 mi ESE 4.6 mph - N/A   Overcast
1:23 PM 63.5 °F 33.1 °F 32% 30.07 in 10.0 mi Calm Calm - N/A   Overcast
1:43 PM 64.6 °F 34.2 °F 32% 30.07 in 10.0 mi East 3.5 mph - N/A   Overcast
2:03 PM 63.9 °F 34.7 °F 34% 30.06 in 10.0 mi Calm Calm - N/A   Overcast
2:23 PM 64.4 °F 35.6 °F 34% 30.05 in 10.0 mi ESE 4.6 mph - N/A   Overcast
2:43 PM 63.7 °F 36.5 °F 36% 30.04 in 10.0 mi Calm Calm - N/A   Overcast
3:03 PM 63.0 °F 38.5 °F 40% 30.04 in 10.0 mi SSE 4.6 mph - N/A   Overcast
3:23 PM 62.8 °F 39.4 °F 42% 30.04 in 10.0 mi Calm Calm - N/A   Overcast
3:43 PM 62.1 °F 40.1 °F 44% 30.04 in 10.0 mi East 3.5 mph - N/A   Overcast
4:03 PM 61.0 °F 42.8 °F 51% 30.04 in 10.0 mi SE 5.8 mph - N/A   Overcast
4:23 PM 57.9 °F 45.5 °F 63% 30.04 in 10.0 mi SE 4.6 mph - N/A   Overcast
4:43 PM 56.7 °F 46.6 °F 69% 30.04 in 10.0 mi Calm Calm - N/A   Overcast
5:03 PM 57.2 °F 46.4 °F 67% 30.03 in 10.0 mi Calm Calm - N/A   Overcast
5:23 PM 57.2 °F 46.8 °F 68% 30.02 in 10.0 mi Calm Calm - N/A   Overcast
5:43 PM 57.4 °F 46.9 °F 68% 30.03 in 10.0 mi Calm Calm - N/A   Overcast
6:23 PM 57.2 °F 47.3 °F 69% 30.03 in 10.0 mi Calm Calm - N/A   Overcast
6:43 PM 57.2 °F 47.7 °F 70% 30.03 in 10.0 mi Calm Calm - N/A   Overcast
7:03 PM 57.2 °F 48.2 °F 72% 30.02 in 10.0 mi Calm Calm - N/A   Overcast
7:23 PM 57.2 °F 46.8 °F 68% 30.02 in 10.0 mi Calm Calm - N/A   Overcast
7:43 PM 57.2 °F 46.6 °F 68% 30.02 in 10.0 mi Calm Calm - N/A   Overcast
8:03 PM 57.2 °F 46.6 °F 68% 30.02 in 10.0 mi Calm Calm - N/A   Overcast
8:23 PM 56.8 °F 46.6 °F 69% 30.02 in 10.0 mi Calm Calm - N/A   Overcast
8:43 PM 57.2 °F 46.4 °F 67% 30.02 in 10.0 mi Calm Calm - N/A   Overcast
9:03 PM 57.2 °F 46.4 °F 67% 30.02 in 10.0 mi Calm Calm - N/A   Overcast
9:23 PM 57.2 °F 46.6 °F 68% 30.02 in 10.0 mi Calm Calm - N/A   Overcast
9:43 PM 57.2 °F 46.9 °F 69% 30.02 in 10.0 mi Calm Calm - N/A   Overcast
10:03 PM 57.4 °F 46.9 °F 68% 30.02 in 10.0 mi Calm Calm - N/A   Overcast
10:23 PM 57.6 °F 47.3 °F 69% 30.01 in 10.0 mi Calm Calm - N/A   Overcast
10:43 PM 57.6 °F 47.3 °F 69% 30.01 in 10.0 mi Calm Calm - N/A   Overcast
11:03 PM 57.4 °F 47.3 °F 69% 30.01 in 10.0 mi Calm Calm - N/A   Overcast
11:23 PM 57.6 °F 47.5 °F 69% 30.01 in 10.0 mi Calm Calm - N/A   Overcast
11:43 PM 57.7 °F 48.2 °F 70% 30.02 in 10.0 mi Calm Calm - N/A   Overcast